When you browse on this site, cookies collect data to enhance your experience and personalize the content and advertising you see.
Visit our Privacy Policy to learn more. By continuing to use the site, you agree to this use of cookies and data.
  • în România
  • Lista ţărilor
  • Pe 7 zile
  • Temperatura apei
  • Meteo pe hartă
  • Widget-uri
  • user-avatar
    Intrare

    Meteo pe oră la Dundee

    Astăzi, 11 Decembrie, Miercuri

    Timp Temperatura Precipitaţii Vânt Presiune Umiditate
    00:00 +2°C° 0 mm 7 m/s 733 mmHg 84%
    01:00 +2°C° 0 mm 7 m/s 733 mmHg 81%
    02:00 0°C° 0 mm 7 m/s 733 mmHg 79%
    03:00 0°C° 0 mm 7 m/s 734 mmHg 77%
    04:00 0°C° 0 mm 8 m/s 734 mmHg 78%
    05:00 0°C° 0 mm 9 m/s 733 mmHg 79%
    06:00 0°C° 0 mm 10 m/s 733 mmHg 81%
    07:00 0°C° 0.1 mm 9 m/s 733 mmHg 82%
    08:00 0°C° 0.1 mm 9 m/s 733 mmHg 84%
    09:00 0°C° 0.1 mm 9 m/s 733 mmHg 85%
    10:00 +1°C° 0 mm 9 m/s 733 mmHg 82%
    11:00 +1°C° 0 mm 8 m/s 733 mmHg 80%
    12:00 +1°C° 0 mm 8 m/s 733 mmHg 77%
    13:00 +2°C° 0 mm 7 m/s 733 mmHg 77%
    14:00 +2°C° 0 mm 7 m/s 733 mmHg 77%
    15:00 +1°C° 0 mm 6 m/s 733 mmHg 77%
    16:00 +1°C° 0 mm 6 m/s 733 mmHg 78%
    17:00 +1°C° 0 mm 6 m/s 733 mmHg 79%
    18:00 -1°C° 0 mm 6 m/s 733 mmHg 80%
    19:00 -1°C° 0 mm 6 m/s 733 mmHg 81%
    20:00 -1°C° 0 mm 6 m/s 734 mmHg 81%
    21:00 0°C° 0 mm 5 m/s 734 mmHg 82%
    22:00 0°C° 0 mm 5 m/s 734 mmHg 83%
    23:00 0°C° 0 mm 5 m/s 734 mmHg 85%

    Mâine, 12 Decembrie, Joi

    Timp Temperatura Precipitaţii Vânt Presiune Umiditate
    00:00 -1°C° 0 mm 5 m/s 734 mmHg 86%
    01:00 -1°C° 0 mm 5 m/s 733 mmHg 88%
    02:00 -1°C° 0 mm 5 m/s 733 mmHg 89%
    03:00 -2°C° 0 mm 6 m/s 732 mmHg 91%
    04:00 0°C° 0.2 mm 5 m/s 732 mmHg 91%
    05:00 0°C° 0.2 mm 5 m/s 731 mmHg 92%
    06:00 0°C° 0.2 mm 5 m/s 731 mmHg 93%
    07:00 0°C° 0 mm 4 m/s 730 mmHg 91%
    08:00 -1°C° 0 mm 4 m/s 729 mmHg 89%
    09:00 0°C° 0 mm 3 m/s 729 mmHg 88%
    10:00 -1°C° 0.1 mm 4 m/s 728 mmHg 89%
    11:00 0°C° 0.1 mm 4 m/s 727 mmHg 91%
    12:00 0°C° 0.1 mm 4 m/s 726 mmHg 92%
    13:00 0°C° 1.1 mm 4 m/s 725 mmHg 94%
    14:00 0°C° 1.1 mm 5 m/s 723 mmHg 95%
    15:00 0°C° 1.1 mm 5 m/s 722 mmHg 97%
    16:00 +1°C° 0.7 mm 4 m/s 721 mmHg 96%
    17:00 +1°C° 0.7 mm 4 m/s 720 mmHg 96%
    18:00 +2°C° 0.7 mm 3 m/s 719 mmHg 96%
    19:00 +2°C° 0.1 mm 3 m/s 719 mmHg 96%
    20:00 +3°C° 0.1 mm 2 m/s 718 mmHg 96%
    21:00 +4°C° 0.1 mm 1 m/s 717 mmHg 96%
    22:00 +4°C° 0 mm 1 m/s 717 mmHg 96%
    23:00 +3°C° 0 mm 2 m/s 717 mmHg 96%

    Poimâine, 13 Decembrie, Vineri

    Timp Temperatura Precipitaţii Vânt Presiune Umiditate
    00:00 +3°C° 0 mm 2 m/s 717 mmHg 96%
    01:00 +3°C° 0 mm 2 m/s 717 mmHg 95%
    02:00 +2°C° 0 mm 3 m/s 717 mmHg 94%
    03:00 +2°C° 0 mm 3 m/s 717 mmHg 93%
    04:00 +1°C° 0.1 mm 3 m/s 717 mmHg 92%
    05:00 0°C° 0.1 mm 4 m/s 718 mmHg 90%
    06:00 0°C° 0.1 mm 4 m/s 718 mmHg 89%
    07:00 0°C° 0.2 mm 4 m/s 719 mmHg 89%
    08:00 0°C° 0.2 mm 4 m/s 720 mmHg 89%
    09:00 0°C° 0.2 mm 4 m/s 720 mmHg 88%
    10:00 +1°C° 0.1 mm 4 m/s 721 mmHg 88%
    11:00 +1°C° 0.1 mm 4 m/s 721 mmHg 88%
    12:00 +3°C° 0.1 mm 4 m/s 722 mmHg 88%
    13:00 +1°C° 0 mm 4 m/s 721 mmHg 89%
    14:00 +1°C° 0 mm 4 m/s 721 mmHg 89%
    15:00 +2°C° 0 mm 3 m/s 721 mmHg 90%
    16:00 +1°C° 0 mm 3 m/s 721 mmHg 90%
    17:00 0°C° 0 mm 3 m/s 721 mmHg 91%
    18:00 -1°C° 0 mm 3 m/s 720 mmHg 91%
    19:00 -1°C° 0 mm 2 m/s 720 mmHg 91%
    20:00 -1°C° 0 mm 2 m/s 719 mmHg 91%
    21:00 +1°C° 0 mm 1 m/s 718 mmHg 90%
    22:00 +1°C° 0 mm 1 m/s 718 mmHg 90%
    23:00 +1°C° 0 mm 1 m/s 717 mmHg 89%

    14 Decembrie, Sâmbătă

    Timp Temperatura Precipitaţii Vânt Presiune Umiditate
    00:00 +1°C° 0 mm 2 m/s 716 mmHg 88%
    01:00 +1°C° 0 mm 2 m/s 716 mmHg 87%
    02:00 +1°C° 0 mm 2 m/s 716 mmHg 86%
    03:00 0°C° 0 mm 3 m/s 716 mmHg 86%
    04:00 0°C° 0 mm 3 m/s 716 mmHg 87%
    05:00 -1°C° 0 mm 4 m/s 717 mmHg 89%
    06:00 -2°C° 0 mm 4 m/s 717 mmHg 90%
    07:00 -2°C° 0 mm 4 m/s 717 mmHg 91%
    08:00 -1°C° 0 mm 5 m/s 717 mmHg 91%
    09:00 -1°C° 0 mm 5 m/s 718 mmHg 92%
    10:00 -2°C° 0 mm 6 m/s 718 mmHg 89%
    11:00 -1°C° 0 mm 7 m/s 718 mmHg 86%
    12:00 0°C° 0 mm 8 m/s 718 mmHg 83%
    13:00 -1°C° 0 mm 7 m/s 718 mmHg 83%
    14:00 -1°C° 0 mm 7 m/s 718 mmHg 83%
    15:00 -1°C° 0 mm 7 m/s 718 mmHg 82%
    16:00 -1°C° 0.2 mm 8 m/s 718 mmHg 82%
    17:00 -3°C° 0.2 mm 10 m/s 718 mmHg 82%
    18:00 -3°C° 0.2 mm 11 m/s 719 mmHg 81%
    19:00 -3°C° 0.7 mm 12 m/s 719 mmHg 82%
    20:00 -2°C° 0.7 mm 12 m/s 720 mmHg 83%
    21:00 -2°C° 0.7 mm 13 m/s 720 mmHg 83%
    22:00 -2°C° 0.2 mm 11 m/s 721 mmHg 84%
    23:00 -3°C° 0.2 mm 10 m/s 721 mmHg 85%

    15 Decembrie, Duminică

    Timp Temperatura Precipitaţii Vânt Presiune Umiditate
    00:00 -2°C° 0.2 mm 8 m/s 722 mmHg 86%
    01:00 -2°C° 0 mm 7 m/s 722 mmHg 85%
    02:00 -3°C° 0 mm 7 m/s 722 mmHg 83%
    03:00 -3°C° 0 mm 6 m/s 722 mmHg 82%
    04:00 -3°C° 0 mm 6 m/s 723 mmHg 81%
    05:00 -2°C° 0 mm 5 m/s 723 mmHg 81%
    06:00 -2°C° 0 mm 5 m/s 723 mmHg 81%
    07:00 -3°C° 0.1 mm 6 m/s 723 mmHg 81%
    08:00 -2°C° 0.1 mm 7 m/s 724 mmHg 80%
    09:00 -2°C° 0.1 mm 8 m/s 724 mmHg 80%
    10:00 -2°C° 0 mm 8 m/s 724 mmHg 79%
    11:00 -1°C° 0 mm 8 m/s 724 mmHg 79%
    12:00 -1°C° 0 mm 8 m/s 725 mmHg 79%
    13:00 -1°C° 0 mm 7 m/s 725 mmHg 81%
    14:00 -2°C° 0 mm 7 m/s 725 mmHg 83%
    15:00 -2°C° 0 mm 7 m/s 725 mmHg 85%
    16:00 -2°C° 0.1 mm 6 m/s 726 mmHg 88%
    17:00 -2°C° 0.1 mm 6 m/s 726 mmHg 91%
    18:00 -2°C° 0.1 mm 6 m/s 727 mmHg 94%
    19:00 -2°C° 0 mm 7 m/s 727 mmHg 92%
    20:00 -2°C° 0 mm 7 m/s 727 mmHg 91%
    21:00 -2°C° 0 mm 8 m/s 728 mmHg 89%
    22:00 -2°C° 0 mm 8 m/s 728 mmHg 90%
    23:00 -2°C° 0 mm 8 m/s 728 mmHg 90%

    16 Decembrie, Luni

    Timp Temperatura Precipitaţii Vânt Presiune Umiditate
    00:00 -2°C° 0 mm 8 m/s 728 mmHg 90%
    01:00 -2°C° 0 mm 8 m/s 728 mmHg 90%
    02:00 -2°C° 0 mm 7 m/s 728 mmHg 90%
    03:00 -2°C° 0 mm 7 m/s 728 mmHg 89%
    04:00 -2°C° 0 mm 7 m/s 729 mmHg 89%
    05:00 -2°C° 0 mm 7 m/s 729 mmHg 88%
    06:00 -1°C° 0 mm 7 m/s 729 mmHg 87%
    07:00 -2°C° 0 mm 7 m/s 729 mmHg 87%
    08:00 -2°C° 0 mm 7 m/s 730 mmHg 87%
    09:00 -2°C° 0 mm 8 m/s 730 mmHg 87%
    10:00 -1°C° 0 mm 8 m/s 731 mmHg 85%
    11:00 -1°C° 0 mm 8 m/s 731 mmHg 83%
    12:00 0°C° 0 mm 8 m/s 731 mmHg 80%
    13:00 0°C° 0 mm 8 m/s 732 mmHg 81%
    14:00 -1°C° 0 mm 7 m/s 732 mmHg 82%
    15:00 -1°C° 0 mm 7 m/s 732 mmHg 83%
    16:00 -1°C° 0 mm 6 m/s 732 mmHg 85%
    17:00 -2°C° 0 mm 6 m/s 733 mmHg 86%
    18:00 -1°C° 0 mm 5 m/s 733 mmHg 88%
    19:00 -1°C° 0 mm 5 m/s 733 mmHg 89%
    20:00 -1°C° 0 mm 5 m/s 734 mmHg 89%
    21:00 -1°C° 0 mm 5 m/s 734 mmHg 90%
    22:00 -1°C° 0 mm 5 m/s 734 mmHg 91%
    23:00 -1°C° 0 mm 5 m/s 735 mmHg 92%
    Arată mai mult